Year,Month,Day,Hour,Minute,Value (Times are PST for temperature in C)
2019,05,27,00,00,16.40
2019,05,27,00,01,16.40
2019,05,27,00,02,16.40
2019,05,27,00,03,16.40
2019,05,27,00,04,16.40
2019,05,27,00,05,16.40
2019,05,27,00,06,16.40
2019,05,27,00,07,16.30
2019,05,27,00,08,16.30
2019,05,27,00,09,16.30
2019,05,27,00,10,16.30
2019,05,27,00,11,16.30
2019,05,27,00,12,16.30
2019,05,27,00,13,16.20
2019,05,27,00,14,16.20
2019,05,27,00,15,16.20
2019,05,27,00,16,16.20
2019,05,27,00,17,16.20
2019,05,27,00,18,16.20
2019,05,27,00,19,16.20
2019,05,27,00,20,16.20
2019,05,27,00,21,16.20
2019,05,27,00,22,16.10
2019,05,27,00,23,16.10
2019,05,27,00,24,16.10
2019,05,27,00,25,16.10
2019,05,27,00,26,16.10
2019,05,27,00,27,16.10
2019,05,27,00,28,16.10
2019,05,27,00,29,16.10
2019,05,27,00,30,16.10
2019,05,27,00,31,16.10
2019,05,27,00,32,16.10
2019,05,27,00,33,16.10
2019,05,27,00,34,16.10
2019,05,27,00,35,16.10
2019,05,27,00,36,16.10
2019,05,27,00,37,16.00
2019,05,27,00,38,16.00
2019,05,27,00,39,16.00
2019,05,27,00,40,16.00
2019,05,27,00,41,16.00
2019,05,27,00,42,16.00
2019,05,27,00,43,15.90
2019,05,27,00,44,15.90
2019,05,27,00,45,15.90
2019,05,27,00,46,15.90
2019,05,27,00,47,15.90
2019,05,27,00,48,15.90
2019,05,27,00,49,15.90
2019,05,27,00,50,15.90
2019,05,27,00,51,15.90
2019,05,27,00,52,15.90
2019,05,27,00,53,15.90
2019,05,27,00,54,15.90
2019,05,27,00,55,15.90
2019,05,27,00,56,15.90
2019,05,27,00,57,15.90
2019,05,27,00,58,15.90
2019,05,27,00,59,15.90
2019,05,27,01,00,15.90
2019,05,27,01,01,15.80
2019,05,27,01,02,15.80
2019,05,27,01,03,15.80
2019,05,27,01,04,15.80
2019,05,27,01,05,15.80
2019,05,27,01,06,15.80
2019,05,27,01,07,15.80
2019,05,27,01,08,15.80
2019,05,27,01,09,15.80
2019,05,27,01,10,15.70
2019,05,27,01,11,15.70
2019,05,27,01,12,15.70
2019,05,27,01,13,15.70
2019,05,27,01,14,15.70
2019,05,27,01,15,15.60
2019,05,27,01,16,15.60
2019,05,27,01,17,15.60
2019,05,27,01,18,15.60
2019,05,27,01,19,15.60
2019,05,27,01,20,15.50
2019,05,27,01,21,15.50
2019,05,27,01,22,15.50
2019,05,27,01,23,15.50
2019,05,27,01,24,15.40
2019,05,27,01,25,15.40
2019,05,27,01,26,15.40
2019,05,27,01,27,15.40
2019,05,27,01,28,15.40
2019,05,27,01,29,15.30
2019,05,27,01,30,15.30
2019,05,27,01,31,15.30
2019,05,27,01,32,15.30
2019,05,27,01,33,15.30
2019,05,27,01,34,15.30
2019,05,27,01,35,15.20
2019,05,27,01,36,15.20
2019,05,27,01,37,15.20
2019,05,27,01,38,15.20
2019,05,27,01,39,15.20
2019,05,27,01,40,15.20
2019,05,27,01,41,15.20
2019,05,27,01,42,15.20
2019,05,27,01,43,15.20
2019,05,27,01,44,15.10
2019,05,27,01,45,15.10
2019,05,27,01,46,15.10
2019,05,27,01,47,15.00
2019,05,27,01,48,15.00
2019,05,27,01,49,15.00
2019,05,27,01,50,15.00
2019,05,27,01,51,15.00
2019,05,27,01,52,15.00
2019,05,27,01,53,15.00
2019,05,27,01,54,15.00
2019,05,27,01,55,15.00
2019,05,27,01,56,15.00
2019,05,27,01,57,15.00
2019,05,27,01,58,15.00
2019,05,27,01,59,15.00
2019,05,27,02,00,15.00
2019,05,27,02,01,15.00
2019,05,27,02,02,15.00
2019,05,27,02,03,15.00
2019,05,27,02,04,15.00
2019,05,27,02,05,15.00
2019,05,27,02,06,15.00
2019,05,27,02,07,15.00
2019,05,27,02,08,15.00
2019,05,27,02,09,15.00
2019,05,27,02,10,15.00
2019,05,27,02,11,15.00
2019,05,27,02,12,15.00
2019,05,27,02,13,15.00
2019,05,27,02,14,14.90
2019,05,27,02,15,14.90
2019,05,27,02,16,14.90
2019,05,27,02,17,14.90
2019,05,27,02,18,14.80
2019,05,27,02,19,14.80
2019,05,27,02,20,14.80
2019,05,27,02,21,14.80
2019,05,27,02,22,14.80
2019,05,27,02,23,14.70
2019,05,27,02,24,14.70
2019,05,27,02,25,14.70
2019,05,27,02,26,14.70
2019,05,27,02,27,14.70
2019,05,27,02,28,14.70
2019,05,27,02,29,14.60
2019,05,27,02,30,14.60
2019,05,27,02,31,14.60
2019,05,27,02,32,14.60
2019,05,27,02,33,14.60
2019,05,27,02,34,14.50
2019,05,27,02,35,14.50
2019,05,27,02,36,14.50
2019,05,27,02,37,14.50
2019,05,27,02,38,14.50
2019,05,27,02,39,14.50
2019,05,27,02,40,14.40
2019,05,27,02,41,14.40
2019,05,27,02,42,14.40
2019,05,27,02,43,14.40
2019,05,27,02,44,14.40
2019,05,27,02,45,14.40
2019,05,27,02,46,14.40
2019,05,27,02,47,14.40
2019,05,27,02,48,14.40
2019,05,27,02,49,14.40
2019,05,27,02,50,14.40
2019,05,27,02,51,14.40
2019,05,27,02,52,14.30
2019,05,27,02,53,14.30
2019,05,27,02,54,14.30
2019,05,27,02,55,14.30
2019,05,27,02,56,14.30
2019,05,27,02,57,14.30
2019,05,27,02,58,14.30
2019,05,27,02,59,14.30
2019,05,27,03,00,14.30
2019,05,27,03,01,14.30
2019,05,27,03,02,14.30
2019,05,27,03,03,14.30
2019,05,27,03,04,14.30
2019,05,27,03,05,14.30
2019,05,27,03,06,14.30
2019,05,27,03,07,14.30
2019,05,27,03,08,14.30
2019,05,27,03,09,14.30
2019,05,27,03,10,14.30
2019,05,27,03,11,14.30
2019,05,27,03,12,14.30
2019,05,27,03,13,14.30
2019,05,27,03,14,14.30
2019,05,27,03,15,14.30
2019,05,27,03,16,14.30
2019,05,27,03,17,14.20
2019,05,27,03,18,14.20
2019,05,27,03,19,14.20
2019,05,27,03,20,14.20
2019,05,27,03,21,14.10
2019,05,27,03,22,14.10
2019,05,27,03,23,14.10
2019,05,27,03,24,14.10
2019,05,27,03,25,14.10
2019,05,27,03,26,14.10
2019,05,27,03,27,14.10
2019,05,27,03,28,14.10
2019,05,27,03,29,14.00
2019,05,27,03,30,14.00
2019,05,27,03,31,13.90
2019,05,27,03,32,13.90
2019,05,27,03,33,13.90
2019,05,27,03,34,13.90
2019,05,27,03,35,13.80
2019,05,27,03,36,13.80
2019,05,27,03,37,13.80
2019,05,27,03,38,13.80
2019,05,27,03,39,13.80
2019,05,27,03,40,13.70
2019,05,27,03,41,13.70
2019,05,27,03,42,13.70
2019,05,27,03,43,13.70
2019,05,27,03,44,13.70
2019,05,27,03,45,13.70
2019,05,27,03,46,13.70
2019,05,27,03,47,13.60
2019,05,27,03,48,13.60
2019,05,27,03,49,13.60
2019,05,27,03,50,13.50
2019,05,27,03,51,13.50
2019,05,27,03,52,13.40
2019,05,27,03,53,13.40
2019,05,27,03,54,13.30
2019,05,27,03,55,13.30
2019,05,27,03,56,13.30
2019,05,27,03,57,13.30
2019,05,27,03,58,13.30
2019,05,27,03,59,13.20
2019,05,27,04,00,13.20
2019,05,27,04,01,13.20
2019,05,27,04,02,13.10
2019,05,27,04,03,13.10
2019,05,27,04,04,13.10
2019,05,27,04,05,13.00
2019,05,27,04,06,13.00
2019,05,27,04,07,12.90
2019,05,27,04,08,12.90
2019,05,27,04,09,12.90
2019,05,27,04,10,12.80
2019,05,27,04,11,12.80
2019,05,27,04,12,12.80
2019,05,27,04,13,12.70
2019,05,27,04,14,12.70
2019,05,27,04,15,12.70
2019,05,27,04,16,12.70
2019,05,27,04,17,12.60
2019,05,27,04,18,12.60
2019,05,27,04,19,12.60
2019,05,27,04,20,12.60
2019,05,27,04,21,12.60
2019,05,27,04,22,12.50
2019,05,27,04,23,12.50
2019,05,27,04,24,12.50
2019,05,27,04,25,12.40
2019,05,27,04,26,12.40
2019,05,27,04,27,12.40
2019,05,27,04,28,12.40
2019,05,27,04,29,12.40
2019,05,27,04,30,12.40
2019,05,27,04,31,12.30
2019,05,27,04,32,12.30
2019,05,27,04,33,12.30
2019,05,27,04,34,12.30
2019,05,27,04,35,12.20
2019,05,27,04,36,12.20
2019,05,27,04,37,12.20
2019,05,27,04,38,12.10
2019,05,27,04,39,12.10
2019,05,27,04,40,12.10
2019,05,27,04,41,12.10
2019,05,27,04,42,12.00
2019,05,27,04,43,12.00
2019,05,27,04,44,11.90
2019,05,27,04,45,11.90
2019,05,27,04,46,11.90
2019,05,27,04,47,11.90
2019,05,27,04,48,11.90
2019,05,27,04,49,11.90
2019,05,27,04,50,11.80
2019,05,27,04,51,11.80
2019,05,27,04,52,11.80
2019,05,27,04,53,11.80
2019,05,27,04,54,11.80
2019,05,27,04,55,11.80
2019,05,27,04,56,11.80
2019,05,27,04,57,11.80
2019,05,27,04,58,11.70
2019,05,27,04,59,11.70
2019,05,27,05,00,11.70
2019,05,27,05,01,11.60
2019,05,27,05,02,11.60
2019,05,27,05,03,11.60
2019,05,27,05,04,11.50
2019,05,27,05,05,11.50
2019,05,27,05,06,11.40
2019,05,27,05,07,11.40
2019,05,27,05,08,11.40
2019,05,27,05,09,11.40
2019,05,27,05,10,11.30
2019,05,27,05,11,11.30
2019,05,27,05,12,11.30
2019,05,27,05,13,11.30
2019,05,27,05,14,11.20
2019,05,27,05,15,11.20
2019,05,27,05,16,11.20
2019,05,27,05,17,11.20
2019,05,27,05,18,11.20
2019,05,27,05,19,11.20
2019,05,27,05,20,11.20
2019,05,27,05,21,11.20
2019,05,27,05,22,11.10
2019,05,27,05,23,11.10
2019,05,27,05,24,11.10
2019,05,27,05,25,11.10
2019,05,27,05,26,11.10
2019,05,27,05,27,11.10
2019,05,27,05,28,11.00
2019,05,27,05,29,11.00
2019,05,27,05,30,11.00
2019,05,27,05,31,11.00
2019,05,27,05,32,11.00
2019,05,27,05,33,10.90
2019,05,27,05,34,10.90
2019,05,27,05,35,10.90
2019,05,27,05,36,10.90
2019,05,27,05,37,10.90
2019,05,27,05,38,10.90
2019,05,27,05,39,10.90
2019,05,27,05,40,10.80
2019,05,27,05,41,10.80
2019,05,27,05,42,10.80
2019,05,27,05,43,10.80
2019,05,27,05,44,10.80
2019,05,27,05,45,10.80
2019,05,27,05,46,10.80
2019,05,27,05,47,10.80
2019,05,27,05,48,10.80
2019,05,27,05,49,10.80
2019,05,27,05,50,10.80
2019,05,27,05,51,10.80
2019,05,27,05,52,10.80
2019,05,27,05,53,10.70
2019,05,27,05,54,10.70
2019,05,27,05,55,10.70
2019,05,27,05,56,10.70
2019,05,27,05,57,10.70
2019,05,27,05,58,10.70
2019,05,27,05,59,10.70
2019,05,27,06,00,10.70
2019,05,27,06,01,10.70
2019,05,27,06,02,10.60
2019,05,27,06,03,10.60
2019,05,27,06,04,10.60
2019,05,27,06,05,10.60
2019,05,27,06,06,10.60
2019,05,27,06,07,10.60
2019,05,27,06,08,10.60
2019,05,27,06,09,10.60
2019,05,27,06,10,10.60
2019,05,27,06,11,10.60
2019,05,27,06,12,10.60
2019,05,27,06,13,10.60
2019,05,27,06,14,10.60
2019,05,27,06,15,10.60
2019,05,27,06,16,10.60
2019,05,27,06,17,10.60
2019,05,27,06,18,10.50
2019,05,27,06,19,10.50
2019,05,27,06,20,10.50
2019,05,27,06,21,10.50
2019,05,27,06,22,10.50
2019,05,27,06,23,10.50
2019,05,27,06,24,10.50
2019,05,27,06,25,10.50
2019,05,27,06,26,10.40
2019,05,27,06,27,10.40
2019,05,27,06,28,10.40
2019,05,27,06,29,10.40
2019,05,27,06,30,10.40
2019,05,27,06,31,10.40
2019,05,27,06,32,10.40
2019,05,27,06,33,10.40
2019,05,27,06,34,10.40
2019,05,27,06,35,10.40
2019,05,27,06,36,10.40
2019,05,27,06,37,10.40
2019,05,27,06,38,10.40
2019,05,27,06,39,10.40
2019,05,27,06,40,10.40
2019,05,27,06,41,10.40
2019,05,27,06,42,10.40
2019,05,27,06,43,10.40
2019,05,27,06,44,10.40
2019,05,27,06,45,10.40
2019,05,27,06,46,10.40
2019,05,27,06,47,10.40
2019,05,27,06,48,10.40
2019,05,27,06,49,10.40
2019,05,27,06,50,10.40
2019,05,27,06,51,10.40
2019,05,27,06,52,10.40
2019,05,27,06,53,10.40
2019,05,27,06,54,10.40
2019,05,27,06,55,10.40
2019,05,27,06,56,10.40
2019,05,27,06,57,10.40
2019,05,27,06,58,10.40
2019,05,27,06,59,10.40
2019,05,27,07,00,10.50
2019,05,27,07,01,10.50
2019,05,27,07,02,10.50
2019,05,27,07,03,10.50
2019,05,27,07,04,10.50
2019,05,27,07,05,10.60
2019,05,27,07,06,10.60
2019,05,27,07,07,10.70
2019,05,27,07,08,10.70
2019,05,27,07,09,10.80
2019,05,27,07,10,10.80
2019,05,27,07,11,10.80
2019,05,27,07,12,10.90
2019,05,27,07,13,10.90
2019,05,27,07,14,10.90
2019,05,27,07,15,11.00
2019,05,27,07,16,11.10
2019,05,27,07,17,11.10
2019,05,27,07,18,11.20
2019,05,27,07,19,11.20
2019,05,27,07,20,11.30
2019,05,27,07,21,11.30
2019,05,27,07,22,11.40
2019,05,27,07,23,11.40
2019,05,27,07,24,11.40
2019,05,27,07,25,11.50
2019,05,27,07,26,11.60
2019,05,27,07,27,11.60
2019,05,27,07,28,11.70
2019,05,27,07,29,11.70
2019,05,27,07,30,11.80
2019,05,27,07,31,11.80
2019,05,27,07,32,11.90
2019,05,27,07,33,12.00
2019,05,27,07,34,12.10
2019,05,27,07,35,12.10
2019,05,27,07,36,12.20
2019,05,27,07,37,12.30
2019,05,27,07,38,12.30
2019,05,27,07,39,12.40
2019,05,27,07,40,12.50
2019,05,27,07,41,12.60
2019,05,27,07,42,12.70
2019,05,27,07,43,12.80
2019,05,27,07,44,12.90
2019,05,27,07,45,12.90
2019,05,27,07,46,13.00
2019,05,27,07,47,13.10
2019,05,27,07,48,13.10
2019,05,27,07,49,13.20
2019,05,27,07,50,13.20
2019,05,27,07,51,13.30
2019,05,27,07,52,13.40
2019,05,27,07,53,13.50
2019,05,27,07,54,13.60
2019,05,27,07,55,13.70
2019,05,27,07,56,13.80
2019,05,27,07,57,13.80
2019,05,27,07,58,13.90
2019,05,27,07,59,14.00
2019,05,27,08,00,14.10
2019,05,27,08,01,14.20
2019,05,27,08,02,14.30
2019,05,27,08,03,14.40
2019,05,27,08,04,14.50
2019,05,27,08,05,14.60
2019,05,27,08,06,14.70
2019,05,27,08,07,14.90
2019,05,27,08,08,15.00
2019,05,27,08,09,15.00
2019,05,27,08,10,15.20
2019,05,27,08,11,15.40
2019,05,27,08,12,15.60
2019,05,27,08,13,15.70
2019,05,27,08,14,15.90
2019,05,27,08,15,16.00
2019,05,27,08,16,16.10
2019,05,27,08,17,16.30
2019,05,27,08,18,16.40
2019,05,27,08,19,16.60
2019,05,27,08,20,16.70
2019,05,27,08,21,16.80
2019,05,27,08,22,16.90
2019,05,27,08,23,17.00
2019,05,27,08,24,17.10
2019,05,27,08,25,17.10
2019,05,27,08,26,17.20
2019,05,27,08,27,17.40
2019,05,27,08,28,17.50
2019,05,27,08,29,17.60
2019,05,27,08,30,17.80
2019,05,27,08,31,17.90
2019,05,27,08,32,18.10
2019,05,27,08,33,18.20
2019,05,27,08,34,18.40
2019,05,27,08,35,18.60
2019,05,27,08,36,18.70
2019,05,27,08,37,18.80
2019,05,27,08,38,18.90
2019,05,27,08,39,19.00
2019,05,27,08,40,19.00
2019,05,27,08,41,19.10
2019,05,27,08,42,19.10
2019,05,27,08,43,19.20
2019,05,27,08,44,19.20
2019,05,27,08,45,19.20
2019,05,27,08,46,19.20
2019,05,27,08,47,19.30
2019,05,27,08,48,19.30
2019,05,27,08,49,19.30
2019,05,27,08,50,19.30
2019,05,27,08,51,19.20
2019,05,27,08,52,19.20
2019,05,27,08,53,19.20
2019,05,27,08,54,19.10
2019,05,27,08,55,19.10
2019,05,27,08,56,19.10
2019,05,27,08,57,19.10
2019,05,27,08,58,19.10
2019,05,27,08,59,19.10
2019,05,27,09,00,19.20
2019,05,27,09,01,19.20
2019,05,27,09,02,19.10
2019,05,27,09,03,19.10
2019,05,27,09,04,19.10
2019,05,27,09,05,19.10
2019,05,27,09,06,19.10
2019,05,27,09,07,19.20
2019,05,27,09,08,19.20
2019,05,27,09,09,19.20
2019,05,27,09,10,19.20
2019,05,27,09,11,19.20
2019,05,27,09,12,19.30
2019,05,27,09,13,19.30
2019,05,27,09,14,19.40
2019,05,27,09,15,19.40
2019,05,27,09,16,19.40
2019,05,27,09,17,19.40
2019,05,27,09,18,19.50
2019,05,27,09,19,19.60
2019,05,27,09,20,19.60
2019,05,27,09,21,19.70
2019,05,27,09,22,19.70
2019,05,27,09,23,19.80
2019,05,27,09,24,19.80
2019,05,27,09,25,19.90
2019,05,27,09,26,19.90
2019,05,27,09,27,19.90
2019,05,27,09,28,20.00
2019,05,27,09,29,20.10
2019,05,27,09,30,20.10
2019,05,27,09,31,20.20
2019,05,27,09,32,20.30
2019,05,27,09,33,20.30
2019,05,27,09,34,20.40
2019,05,27,09,35,20.60
2019,05,27,09,36,20.80
2019,05,27,09,37,20.90
2019,05,27,09,38,20.90
2019,05,27,09,39,21.00
2019,05,27,09,40,21.10
2019,05,27,09,41,21.20
2019,05,27,09,42,21.20
2019,05,27,09,43,21.30
2019,05,27,09,44,21.40
2019,05,27,09,45,21.50
2019,05,27,09,46,21.60
2019,05,27,09,47,21.70
2019,05,27,09,48,21.70
2019,05,27,09,49,21.80
2019,05,27,09,50,21.90
2019,05,27,09,51,22.00
2019,05,27,09,52,22.00
2019,05,27,09,53,22.10
2019,05,27,09,54,22.10
2019,05,27,09,55,22.30
2019,05,27,09,56,22.40
2019,05,27,09,57,22.40
2019,05,27,09,58,22.40
2019,05,27,09,59,22.50
2019,05,27,10,00,22.80
2019,05,27,10,01,22.90
2019,05,27,10,02,23.00
2019,05,27,10,03,23.00
2019,05,27,10,04,23.10
2019,05,27,10,05,23.10
2019,05,27,10,06,23.00
2019,05,27,10,07,23.00
2019,05,27,10,08,22.90
2019,05,27,10,09,22.80
2019,05,27,10,10,22.80
2019,05,27,10,11,22.90
2019,05,27,10,12,22.90
2019,05,27,10,13,23.00
2019,05,27,10,14,23.10
2019,05,27,10,15,23.10
2019,05,27,10,16,23.10
2019,05,27,10,17,23.10
2019,05,27,10,18,23.10
2019,05,27,10,19,23.10
2019,05,27,10,20,23.10
2019,05,27,10,21,23.20
2019,05,27,10,22,23.20
2019,05,27,10,23,23.30
2019,05,27,10,24,23.30
2019,05,27,10,25,23.40
2019,05,27,10,26,23.40
2019,05,27,10,27,23.40
2019,05,27,10,28,23.30
2019,05,27,10,29,23.30
2019,05,27,10,30,23.30
2019,05,27,10,31,23.30
2019,05,27,10,32,23.40
2019,05,27,10,33,23.40
2019,05,27,10,34,23.50
2019,05,27,10,35,23.60
2019,05,27,10,36,23.70
2019,05,27,10,37,23.70
2019,05,27,10,38,23.80
2019,05,27,10,39,23.90
2019,05,27,10,40,23.90
2019,05,27,10,41,24.00
2019,05,27,10,42,24.10
2019,05,27,10,43,24.20
2019,05,27,10,44,24.20
2019,05,27,10,45,24.20
2019,05,27,10,46,24.20
2019,05,27,10,47,24.20
2019,05,27,10,48,24.10
2019,05,27,10,49,24.00
2019,05,27,10,50,23.90
2019,05,27,10,51,23.90
2019,05,27,10,52,23.90
2019,05,27,10,53,23.80
2019,05,27,10,54,23.80
2019,05,27,10,55,23.80
2019,05,27,10,56,23.70
2019,05,27,10,57,23.70
2019,05,27,10,58,23.70
2019,05,27,10,59,23.70
2019,05,27,11,00,23.70
2019,05,27,11,01,23.80
2019,05,27,11,02,23.80
2019,05,27,11,03,23.80
2019,05,27,11,04,23.80
2019,05,27,11,05,23.80
2019,05,27,11,06,23.80
2019,05,27,11,07,23.80
2019,05,27,11,08,23.80
2019,05,27,11,09,23.80
2019,05,27,11,10,23.90
2019,05,27,11,11,23.90
2019,05,27,11,12,23.90
2019,05,27,11,13,24.00
2019,05,27,11,14,23.90
2019,05,27,11,15,23.90
2019,05,27,11,16,23.90
2019,05,27,11,17,23.90
2019,05,27,11,18,23.90
2019,05,27,11,19,24.00
2019,05,27,11,20,24.00
2019,05,27,11,21,24.10
2019,05,27,11,22,24.10
2019,05,27,11,23,24.10
2019,05,27,11,24,24.10
2019,05,27,11,25,24.10
2019,05,27,11,26,24.20
2019,05,27,11,27,24.10
2019,05,27,11,28,24.10
2019,05,27,11,29,24.10
2019,05,27,11,30,24.10
2019,05,27,11,31,24.20
2019,05,27,11,32,24.20
2019,05,27,11,33,24.30
2019,05,27,11,34,24.40
2019,05,27,11,35,24.40
2019,05,27,11,36,24.40
2019,05,27,11,37,24.30
2019,05,27,11,38,24.20
2019,05,27,11,39,24.10
2019,05,27,11,40,24.10
2019,05,27,11,41,24.10
2019,05,27,11,42,24.20
2019,05,27,11,43,24.20
2019,05,27,11,44,24.20
2019,05,27,11,45,24.30
2019,05,27,11,46,24.40
2019,05,27,11,47,24.40
2019,05,27,11,48,24.40
2019,05,27,11,49,24.40
2019,05,27,11,50,24.50
2019,05,27,11,51,24.50
2019,05,27,11,52,24.60
2019,05,27,11,53,24.60
2019,05,27,11,54,24.60
2019,05,27,11,55,24.60
2019,05,27,11,56,24.60
2019,05,27,11,57,24.60
2019,05,27,11,58,24.60
2019,05,27,11,59,24.60
2019,05,27,12,00,24.60
2019,05,27,12,01,24.60
2019,05,27,12,02,24.60
2019,05,27,12,03,24.60
2019,05,27,12,04,24.60
2019,05,27,12,05,24.70
2019,05,27,12,06,24.70
2019,05,27,12,07,24.70
2019,05,27,12,08,24.70
2019,05,27,12,09,24.80
2019,05,27,12,10,24.80
2019,05,27,12,11,24.80
2019,05,27,12,12,24.80
2019,05,27,12,13,24.90
2019,05,27,12,14,24.90
2019,05,27,12,15,24.80
2019,05,27,12,16,24.80
2019,05,27,12,17,24.80
2019,05,27,12,18,24.80
2019,05,27,12,19,24.80
2019,05,27,12,20,24.90
2019,05,27,12,21,24.90
2019,05,27,12,22,24.90
2019,05,27,12,23,24.90
2019,05,27,12,24,24.90
2019,05,27,12,25,25.00
2019,05,27,12,26,25.10
2019,05,27,12,27,25.10
2019,05,27,12,28,25.10
2019,05,27,12,29,25.10
2019,05,27,12,30,25.10
2019,05,27,12,31,25.10
2019,05,27,12,32,25.10
2019,05,27,12,33,25.10
2019,05,27,12,34,25.10
2019,05,27,12,35,25.10
2019,05,27,12,36,25.10
2019,05,27,12,37,25.20
2019,05,27,12,38,25.20
2019,05,27,12,39,25.30
2019,05,27,12,40,25.30
2019,05,27,12,41,25.50
2019,05,27,12,42,25.60
2019,05,27,12,43,25.70
2019,05,27,12,44,25.80
2019,05,27,12,45,25.90
2019,05,27,12,46,25.90
2019,05,27,12,47,26.00
2019,05,27,12,48,26.00
2019,05,27,12,49,26.10
2019,05,27,12,50,26.10
2019,05,27,12,51,26.00
2019,05,27,12,52,25.90
2019,05,27,12,53,25.80
2019,05,27,12,54,25.80
2019,05,27,12,55,25.80
2019,05,27,12,56,25.80
2019,05,27,12,57,25.80
2019,05,27,12,58,25.80
2019,05,27,12,59,25.90
2019,05,27,13,00,25.90
2019,05,27,13,01,25.90
2019,05,27,13,02,26.00
2019,05,27,13,03,26.10
2019,05,27,13,04,26.20
2019,05,27,13,05,26.20
2019,05,27,13,06,26.20
2019,05,27,13,07,26.20
2019,05,27,13,08,26.30
2019,05,27,13,09,26.30
2019,05,27,13,10,26.30
2019,05,27,13,11,26.40
2019,05,27,13,12,26.40
2019,05,27,13,13,26.60
2019,05,27,13,14,26.70
2019,05,27,13,15,26.70
2019,05,27,13,16,26.70
2019,05,27,13,17,26.70
2019,05,27,13,18,26.70
2019,05,27,13,19,26.70
2019,05,27,13,20,26.50
2019,05,27,13,21,26.40
2019,05,27,13,22,26.40
2019,05,27,13,23,26.30
2019,05,27,13,24,26.20
2019,05,27,13,25,26.20
2019,05,27,13,26,26.20
2019,05,27,13,27,26.20
2019,05,27,13,28,26.30
2019,05,27,13,29,26.30
2019,05,27,13,30,26.40
2019,05,27,13,31,26.50
2019,05,27,13,32,26.60
2019,05,27,13,33,26.70
2019,05,27,13,34,26.60
2019,05,27,13,35,26.60
2019,05,27,13,36,26.60
2019,05,27,13,37,26.60
2019,05,27,13,38,26.70
2019,05,27,13,39,26.80
2019,05,27,13,40,26.80
2019,05,27,13,41,26.90
2019,05,27,13,42,27.00
2019,05,27,13,43,27.10
2019,05,27,13,44,27.30
2019,05,27,13,45,27.30
2019,05,27,13,46,27.30
2019,05,27,13,47,27.30
2019,05,27,13,48,27.20
2019,05,27,13,49,27.20
2019,05,27,13,50,27.20
2019,05,27,13,51,27.20
2019,05,27,13,52,27.30
2019,05,27,13,53,27.30
2019,05,27,13,54,27.40
2019,05,27,13,55,27.40
2019,05,27,13,56,27.40
2019,05,27,13,57,27.40
2019,05,27,13,58,27.50
2019,05,27,13,59,27.60
2019,05,27,14,00,27.70
2019,05,27,14,01,27.70
2019,05,27,14,02,27.90
2019,05,27,14,03,27.90
2019,05,27,14,04,27.90
2019,05,27,14,05,27.90
2019,05,27,14,06,27.80
2019,05,27,14,07,27.80
2019,05,27,14,08,27.60
2019,05,27,14,09,27.60
2019,05,27,14,10,27.50
2019,05,27,14,11,27.40
2019,05,27,14,12,27.30
2019,05,27,14,13,27.20
2019,05,27,14,14,27.20
2019,05,27,14,15,27.20
2019,05,27,14,16,27.30
2019,05,27,14,17,27.40
2019,05,27,14,18,27.60
2019,05,27,14,19,27.60
2019,05,27,14,20,27.50
2019,05,27,14,21,27.40
2019,05,27,14,22,27.40
2019,05,27,14,23,27.30
2019,05,27,14,24,27.30
2019,05,27,14,25,27.30
2019,05,27,14,26,27.30
2019,05,27,14,27,27.30
2019,05,27,14,28,27.40
2019,05,27,14,29,27.40
2019,05,27,14,30,27.50
2019,05,27,14,31,27.50
2019,05,27,14,32,27.60
2019,05,27,14,33,27.60
2019,05,27,14,34,27.70
2019,05,27,14,35,27.70
2019,05,27,14,36,27.60
2019,05,27,14,37,27.60
2019,05,27,14,38,27.50
2019,05,27,14,39,27.50
2019,05,27,14,40,27.50
2019,05,27,14,41,27.50
2019,05,27,14,42,27.40
2019,05,27,14,43,27.50
2019,05,27,14,44,27.50
2019,05,27,14,45,27.60
2019,05,27,14,46,27.60
2019,05,27,14,47,27.60
2019,05,27,14,48,27.50
2019,05,27,14,49,27.50
2019,05,27,14,50,27.50
2019,05,27,14,51,27.60
2019,05,27,14,52,27.60
2019,05,27,14,53,27.70
2019,05,27,14,54,27.70
2019,05,27,14,55,27.70
2019,05,27,14,56,27.70
2019,05,27,14,57,27.70
2019,05,27,14,58,27.70
2019,05,27,14,59,27.70
2019,05,27,15,00,27.70
2019,05,27,15,01,27.70
2019,05,27,15,02,27.80
2019,05,27,15,03,27.80
2019,05,27,15,04,27.90
2019,05,27,15,05,27.90
2019,05,27,15,06,27.90
2019,05,27,15,07,27.80
2019,05,27,15,08,27.70
2019,05,27,15,09,27.70
2019,05,27,15,10,27.70
2019,05,27,15,11,27.70
2019,05,27,15,12,27.70
2019,05,27,15,13,27.80
2019,05,27,15,14,27.80
2019,05,27,15,15,27.90
2019,05,27,15,16,28.00
2019,05,27,15,17,28.20
2019,05,27,15,18,28.30
2019,05,27,15,19,28.40
2019,05,27,15,20,28.50
2019,05,27,15,21,28.60
2019,05,27,15,22,28.70
2019,05,27,15,23,28.80
2019,05,27,15,24,28.90
2019,05,27,15,25,29.00
2019,05,27,15,26,28.90
2019,05,27,15,27,28.80
2019,05,27,15,28,28.80
2019,05,27,15,29,28.80
2019,05,27,15,30,28.70
2019,05,27,15,31,28.70
2019,05,27,15,32,28.60
2019,05,27,15,33,28.60
2019,05,27,15,34,28.60
2019,05,27,15,35,28.60
2019,05,27,15,36,28.70
2019,05,27,15,37,28.60
2019,05,27,15,38,28.60
2019,05,27,15,39,28.60
2019,05,27,15,40,28.50
2019,05,27,15,41,28.40
2019,05,27,15,42,28.40
2019,05,27,15,43,28.20
2019,05,27,15,44,28.00
2019,05,27,15,45,27.80
2019,05,27,15,46,27.60
2019,05,27,15,47,27.50
2019,05,27,15,48,27.40
2019,05,27,15,49,27.40
2019,05,27,15,50,27.30
2019,05,27,15,51,27.20
2019,05,27,15,52,27.20
2019,05,27,15,53,27.20
2019,05,27,15,54,27.30
2019,05,27,15,55,27.30
2019,05,27,15,56,27.30
2019,05,27,15,57,27.40
2019,05,27,15,58,27.40
2019,05,27,15,59,27.40
2019,05,27,16,00,27.40
2019,05,27,16,01,27.50
2019,05,27,16,02,27.60
2019,05,27,16,03,27.60
2019,05,27,16,04,27.70
2019,05,27,16,05,27.70
2019,05,27,16,06,27.80
2019,05,27,16,07,27.80
2019,05,27,16,08,27.70
2019,05,27,16,09,27.70
2019,05,27,16,10,27.70
2019,05,27,16,11,27.70
2019,05,27,16,12,27.70
2019,05,27,16,13,27.70
2019,05,27,16,14,27.70
2019,05,27,16,15,27.70
2019,05,27,16,16,27.70
2019,05,27,16,17,27.70
2019,05,27,16,18,27.60
2019,05,27,16,19,27.50
2019,05,27,16,20,27.40
2019,05,27,16,21,27.30
2019,05,27,16,22,27.30
2019,05,27,16,23,27.20
2019,05,27,16,24,27.10
2019,05,27,16,25,27.10
2019,05,27,16,26,27.00
2019,05,27,16,27,26.90
2019,05,27,16,28,26.80
2019,05,27,16,29,26.70
2019,05,27,16,30,26.50
2019,05,27,16,31,26.40
2019,05,27,16,32,26.20
2019,05,27,16,33,26.10
2019,05,27,16,34,25.90
2019,05,27,16,35,25.80
2019,05,27,16,36,25.50
2019,05,27,16,37,25.20
2019,05,27,16,38,24.90
2019,05,27,16,39,24.60
2019,05,27,16,40,24.20
2019,05,27,16,41,23.80
2019,05,27,16,42,23.50
2019,05,27,16,43,23.10
2019,05,27,16,44,22.70
2019,05,27,16,45,22.50
2019,05,27,16,46,22.20
2019,05,27,16,47,22.00
2019,05,27,16,48,21.80
2019,05,27,16,49,21.50
2019,05,27,16,50,21.30
2019,05,27,16,51,21.10
2019,05,27,16,52,21.00
2019,05,27,16,53,20.80
2019,05,27,16,54,20.70
2019,05,27,16,55,20.60
2019,05,27,16,56,20.50
2019,05,27,16,57,20.40
2019,05,27,16,58,20.40
2019,05,27,16,59,20.40
2019,05,27,17,00,20.40
2019,05,27,17,01,20.40
2019,05,27,17,02,20.40
2019,05,27,17,03,20.40
2019,05,27,17,04,20.40
2019,05,27,17,05,20.40
2019,05,27,17,06,20.40
2019,05,27,17,07,20.40
2019,05,27,17,08,20.40
2019,05,27,17,09,20.30
2019,05,27,17,10,20.30
2019,05,27,17,11,20.30
2019,05,27,17,12,20.30
2019,05,27,17,13,20.30
2019,05,27,17,14,20.30
2019,05,27,17,15,20.20
2019,05,27,17,16,20.20
2019,05,27,17,17,20.20
2019,05,27,17,18,20.20
2019,05,27,17,19,20.20